#timestamp,LO_Frequency,Hit,StdDev 
1586181615.3,286047000.6,N
1586181635.2,286047002.5,N
1586181655.9,286047004.4,N
1586181675.7,286047001.8,N
1586181695.6,286046994.6,N
1586181715.4,286046989.5,N
1586181735.2,286046986.3,N
1586181755.1,286046984.5,N
1586181756.0,286046984.5,N
1586181775.8,286046985.8,N
1586181795.7,286046989.7,N
1586181815.5,286046985.4,N
1586181835.3,286046986.9,N
1586181855.2,286046992.8,N
1586181875.0,286046989.2,N
1586181875.9,286046989.2,N
1586181895.7,286046994.9,N
1586181915.6,286046999.8,N
1586181935.4,286047001.7,N
1586181955.3,286047011.0,N
1586181975.1,286047011.5,N
1586181976.0,286047011.5,N
1586181995.8,286047007.5,N
1586182015.7,286047004.0,N
1586182035.5,286046999.1,N
1586182055.3,286047001.4,N
1586182075.2,286047004.3,N
1586182095.0,286046997.8,N
1586182095.9,286046997.8,N
1586182115.8,286046993.8,N
1586182135.6,286046994.0,N
1586182155.4,286046992.9,N
1586182175.3,286047001.2,N
1586182195.1,286047007.4,N
1586182215.8,286047006.3,N
1586182235.7,286046999.8,N
1586182255.5,286046997.0,N
1586182275.4,286046996.4,N
1586182295.2,286046994.3,N
1586182315.0,286046995.4,N
1586182315.9,286046995.4,N
1586182335.8,286047002.6,N
1586182355.6,286047006.3,N
1586182375.4,286047009.7,N
1586182395.3,286047007.4,N
1586182415.1,286047005.8,N
1586182435.9,286046997.3,N
1586182455.7,286046989.0,N
1586182475.5,286046986.3,N
1586182495.4,286046981.4,N
1586182515.2,286046976.0,Y
1586182535.0,286046973.6,P
1586182536.0,286046973.6,N
1586182555.8,286046969.5,N
1586182575.6,286046967.7,N
1586182595.5,286046970.5,N
1586182615.3,286046970.1,N
1586182635.1,286046982.9,N
1586182655.9,286046987.1,N
1586182675.7,286046980.9,N
1586182695.6,286046982.9,N
1586182715.4,286046983.7,N
1586182735.2,286046991.3,N
1586182755.1,286046994.2,N
1586182756.0,286046994.2,N
1586182775.8,286046996.3,N
1586182795.6,286046991.6,N
1586182815.5,286046990.7,N
1586182835.3,286046987.2,N
1586182855.2,286046986.2,N
1586182875.9,286046982.9,N
1586182895.7,286046978.3,N
1586182915.6,286046981.1,N
1586182935.4,286046985.6,N
1586182955.2,286046987.3,N
1586182975.1,286046989.4,N
1586182976.0,286046989.4,N
1586182995.8,286046984.5,N
1586183015.7,286046980.3,N
1586183035.5,286046979.8,N
1586183055.3,286046984.7,N
1586183075.2,286046986.3,N
1586183095.0,286046978.5,N
1586183095.9,286046978.5,N
1586183115.8,286046969.4,Y
1586183135.6,286046983.3,P
1586183155.4,286046980.7,P
1586183175.3,286046976.1,P
1586183195.1,286046977.5,Y
1586183215.8,286046995.9,P
1586183235.7,286046994.1,N
1586183255.5,286046992.5,N
1586183275.4,286046992.7,N
1586183295.2,286046997.4,N
1586183315.0,286047000.7,N
1586183315.9,286047000.7,N
1586183335.8,286047002.3,N
1586183355.6,286046998.6,N
1586183375.4,286046993.8,N
1586183395.3,286046990.9,N
1586183415.1,286046990.0,N
1586183435.9,286046988.0,N
1586183455.7,286046986.4,N
1586183475.5,286046983.2,N
1586183495.4,286046982.2,N
1586183515.2,286046983.0,N
1586183535.1,286046979.0,Y
1586183536.0,286046979.0,P
1586183555.8,286046986.0,N
1586183575.7,286046989.3,N
1586183595.5,286046992.8,N
1586183615.3,286046989.8,N
1586183635.2,286046985.4,Y
1586183655.0,286046995.6,P
1586183655.9,286046995.6,N
1586183675.7,286046999.4,N
1586183695.6,286047001.3,N
1586183715.4,286047004.7,N
1586183735.3,286047005.5,N
1586183755.1,286047007.2,N
1586183756.0,286047007.2,N
1586183775.8,286047006.9,N
1586183795.7,286047006.6,N
1586183815.5,286047010.7,N
1586183835.3,286047011.9,N
1586183855.2,286047012.0,N
1586183875.0,286047011.8,N
1586183875.9,286047011.8,N
1586183895.8,286047011.0,N
1586183915.6,286047014.9,N
1586183935.4,286047012.8,N
1586183955.3,286047013.6,N
1586183975.1,286047016.8,N
1586183995.8,286047018.4,N
1586184015.7,286047023.7,Y
1586184035.5,286047018.0,P
1586184055.4,286047014.1,N
1586184075.2,286047015.9,P
1586184095.1,286047017.1,Y
1586184096.0,286047011.9,P
1586184115.8,286047001.2,N
1586184135.6,286047000.9,N
1586184155.5,286047005.9,N
1586184175.3,286047000.2,N
1586184195.2,286047000.1,N
1586184215.9,286046998.6,N
1586184235.7,286046998.8,N
1586184255.6,286046999.1,N
1586184275.4,286046997.4,N
1586184295.2,286046994.3,N
1586184315.1,286046992.7,N
1586184316.0,286046992.7,N
1586184335.8,286046992.6,N
1586184355.7,286046990.2,N
1586184375.5,286046992.7,N
1586184395.3,286046992.5,N
1586184415.2,286046991.6,N
1586184435.0,286046991.5,N
1586184435.9,286046991.5,N
1586184455.7,286046992.0,N
1586184475.6,286046993.1,N
1586184495.4,286046997.6,N
1586184515.3,286046993.4,N
1586184535.1,286046992.9,N
1586184536.0,286046992.9,N
1586184555.8,286046988.8,N
1586184575.7,286046987.8,N
1586184595.5,286046987.7,N
1586184615.3,286046987.7,N
1586184635.2,286046987.1,N
1586184655.0,286046989.4,N
1586184655.9,286046989.4,N
1586184675.8,286046986.3,Y
1586184695.6,286046994.3,P
1586184715.4,286046992.1,P
1586184735.3,286046999.4,N
1586184755.1,286046996.5,N
1586184775.9,286046996.6,N
1586184795.7,286046997.1,N
1586184815.5,286046996.6,N
1586184835.4,286047001.1,N
1586184855.2,286047002.4,N
1586184875.0,286047001.3,N
1586184875.9,286047001.3,N
1586184895.8,286047005.2,N
1586184915.6,286047006.7,N
1586184935.5,286047006.2,N
1586184955.3,286047010.0,N
1586184975.2,286047013.6,N
1586184995.9,286047011.5,N
1586185015.7,286047013.6,N
1586185035.6,286047014.3,N
1586185055.4,286047014.6,N
1586185075.3,286047018.7,N
1586185095.1,286047023.1,N
1586185115.9,286047021.3,N
1586185135.7,286047018.2,N
1586185155.6,286047017.9,N
1586185175.4,286047017.9,N
1586185195.2,286047020.4,N
